Meridian, MS

6:56 PM CDT on August 22, 2017 (GMT -0500)
Key

Weather History for KMEI - May, 2013

Change the Weather History Date:

Friday, May 17, 2013

  Actual Average Record
Temperature  
Mean Temperature 75 °F 71 °F  
Max Temperature 83 °F 84 °F 93 °F (1957)
Min Temperature 67 °F 59 °F 43 °F (2011)
Degree Days  
Heating Degree Days 0 0  
Month to date heating degree days 55 16  
Since 1 July heating degree days 2512 2550  
Cooling Degree Days 10 7  
Month to date cooling degree days 37 84  
Year to date cooling degree days 123 167  
Growing Degree Days 24 (Base 50)    
Moisture  
Dew Point 68 °F    
Average Humidity 82    
Maximum Humidity 100    
Minimum Humidity 63    
Precipitation  
Precipitation 0.01 in 0.15 in 2.60 in (1980)
Month to date precipitation 5.91 2.45  
Year to date precipitation 33.71 23.38  
Sea Level Pressure  
Sea Level Pressure 29.99 in    
Wind  
Wind Speed 10 mph (South)    
Max Wind Speed 18 mph    
Max Gust Speed 23 mph    
Visibility 8 miles    
Events      
T = Trace of Precipitation, MM = Missing Value Source: NWS Daily Summary

Daily Weather History Graph

Daily Weather History Graph

Search for Another Location

Airport or City:

Trip Planner

Search our weather history database for the weather conditions in past years. The results will help you decide how hot, cold, wet, or windy it might be!

Date:

Astronomy

May. 17, 2013 Rise Set
Actual Time 5:55 AM CDT 7:47 PM CDT
Civil Twilight 5:28 AM CDT 8:14 PM CDT
Nautical Twilight 4:55 AM CDT 8:47 PM CDT
Astronomical Twilight 4:20 AM CDT 9:22 PM CDT
Moon 12:18 PM CDT (5/17) 12:48 AM CDT (5/17)
Length of Visible Light 14h 46m
Length of Day
13h 52m
Waxing Crescent, 45% of the Moon is Illuminated
May 17
Waxing Crescent
May 17
First Quarter
May 24
Full
May 31
Last Quarter
Jun 8
New

Hourly Weather History & Observations

Time (CDT) Temp. Heat Index Dew Point Humidity Pressure Visibility Wind Dir Wind Speed Gust Speed Precip Events Conditions
12:58 AM 68.0 °F - 66.0 °F 93% 29.98 in 9.0 mi South 6.9 mph - N/A   Partly Cloudy
1:24 AM 66.2 °F - 66.2 °F 100% 29.99 in 8.0 mi SSW 4.6 mph - N/A   Scattered Clouds
1:43 AM 66.2 °F - 66.2 °F 100% 29.99 in 8.0 mi South 4.6 mph - N/A   Mostly Cloudy
1:49 AM 66.2 °F - 66.2 °F 100% 29.99 in 8.0 mi South 5.8 mph - N/A   Mostly Cloudy
1:58 AM 66.9 °F - 66.0 °F 97% 29.98 in 8.0 mi SSW 5.8 mph - N/A   Mostly Cloudy
2:14 AM 68.0 °F - 66.2 °F 94% 29.98 in 8.0 mi South 5.8 mph - N/A   Mostly Cloudy
2:32 AM 66.2 °F - 66.2 °F 100% 29.98 in 8.0 mi South 5.8 mph - N/A   Mostly Cloudy
2:38 AM 66.2 °F - 66.2 °F 100% 29.98 in 8.0 mi South 6.9 mph - N/A   Mostly Cloudy
2:58 AM 66.9 °F - 66.0 °F 97% 29.97 in 8.0 mi South 5.8 mph - N/A   Mostly Cloudy
3:09 AM 66.2 °F - 66.2 °F 100% 29.98 in 8.0 mi South 4.6 mph - N/A   Mostly Cloudy
3:18 AM 66.2 °F - 66.2 °F 100% 29.98 in 7.0 mi South 4.6 mph - N/A   Overcast
3:58 AM 68.0 °F - 66.0 °F 93% 29.97 in 8.0 mi South 8.1 mph - N/A   Overcast
4:14 AM 68.0 °F - 66.2 °F 94% 29.98 in 8.0 mi South 5.8 mph - N/A   Overcast
4:42 AM 68.0 °F - 66.2 °F 94% 29.98 in 8.0 mi South 4.6 mph - N/A   Overcast
4:58 AM 68.0 °F - 66.0 °F 93% 29.98 in 8.0 mi South 4.6 mph - N/A   Overcast
5:05 AM 68.0 °F - 66.2 °F 94% 29.99 in 8.0 mi South 4.6 mph - N/A   Overcast
5:21 AM 68.0 °F - 66.2 °F 94% 29.99 in 9.0 mi South 5.8 mph - N/A   Overcast
5:48 AM 68.0 °F - 66.2 °F 94% 30.00 in 8.0 mi South 6.9 mph - N/A   Overcast
5:58 AM 68.0 °F - 66.9 °F 96% 30.00 in 7.0 mi South 8.1 mph - N/A   Overcast
6:02 AM 68.0 °F - 66.2 °F 94% 30.01 in 7.0 mi South 6.9 mph - N/A   Overcast
6:58 AM 69.1 °F - 66.9 °F 93% 30.01 in 6.0 mi South 8.1 mph - N/A   Overcast
7:58 AM 71.1 °F - 68.0 °F 90% 30.01 in 6.0 mi South 8.1 mph - N/A   Overcast
8:27 AM 71.6 °F - 68.0 °F 88% 30.02 in 6.0 mi South 11.5 mph - N/A   Overcast
8:58 AM 72.0 °F - 68.0 °F 87% 30.02 in 7.0 mi South 11.5 mph - N/A   Mostly Cloudy
9:58 AM 72.0 °F - 69.1 °F 91% 30.02 in 6.0 mi South 11.5 mph - N/A   Overcast
10:55 AM 73.4 °F - 69.8 °F 88% 30.03 in 7.0 mi South 10.4 mph - N/A   Mostly Cloudy
10:58 AM 73.9 °F - 69.1 °F 85% 30.02 in 8.0 mi South 10.4 mph - N/A   Mostly Cloudy
11:58 AM 78.1 °F - 69.1 °F 74% 30.02 in 10.0 mi SSW 13.8 mph - N/A   Mostly Cloudy
12:16 PM 78.8 °F - 69.8 °F 74% 30.02 in 10.0 mi SSW 10.4 mph - N/A   Overcast
12:37 PM 78.8 °F - 69.8 °F 74% 30.02 in 10.0 mi South 15.0 mph 21.9 mph N/A   Mostly Cloudy
12:45 PM 78.8 °F - 69.8 °F 74% 30.02 in 10.0 mi SSW 11.5 mph 20.7 mph N/A   Mostly Cloudy
12:58 PM 78.1 °F - 69.1 °F 74% 30.01 in 10.0 mi SSW 11.5 mph 18.4 mph N/A   Overcast
1:58 PM 79.0 °F - 69.1 °F 72% 30.00 in 10.0 mi South 11.5 mph - N/A   Mostly Cloudy
2:58 PM 80.1 °F 82.9 °F 69.1 °F 69% 29.97 in 10.0 mi SSW 16.1 mph - 0.00 in   Overcast
3:58 PM 81.0 °F 84.1 °F 69.1 °F 67% 29.95 in 10.0 mi SSW 16.1 mph - N/A   Mostly Cloudy
4:58 PM 82.0 °F 84.9 °F 68.0 °F 62% 29.94 in 10.0 mi SSW 15.0 mph - N/A   Scattered Clouds
5:58 PM 82.0 °F 85.5 °F 69.1 °F 65% 29.94 in 10.0 mi SSW 12.7 mph - N/A   Clear
6:58 PM 79.0 °F - 70.0 °F 74% 29.95 in 10.0 mi WSW 4.6 mph - N/A   Mostly Cloudy
7:58 PM 75.9 °F - 70.0 °F 82% 29.96 in 8.0 mi SSW 4.6 mph - N/A   Mostly Cloudy
8:58 PM 73.0 °F - 70.0 °F 90% 29.96 in 8.0 mi SSW 5.8 mph - 0.01 in   Mostly Cloudy
9:58 PM 73.9 °F - 69.1 °F 85% 29.99 in 9.0 mi SSW 9.2 mph - N/A   Partly Cloudy
10:58 PM 73.0 °F - 69.1 °F 87% 30.00 in 8.0 mi South 8.1 mph - N/A   Clear
11:58 PM 72.0 °F - 69.1 °F 91% 30.00 in 7.0 mi South 8.1 mph - N/A   Partly Cloudy